Tracking 18951 objects as of 21-Jan-2018
HD Live streaming from Space Station
objects crossing your sky now

FENGYUN 1C DEB

Track FENGYUN 1C DEB now!
10-day predictions


NORAD ID: 31921
Int'l Code: 1999-025CLY
Perigee: 855.4 km
Apogee: 1,166.0 km
Inclination: 99.4 °
Period: 105.2 minutes
Semi major axis: 7381 km
RCS: 0.0067 m2 (small)
Launch date: May 10, 1999
Source: People's Republic of China (PRC)
Launch site: Taiyaun Space Center, China (TSC)

Note: This is SATELLITE DEBRIS
aabbcc
Your satellite tracking list
Your tracking list is empty




NASA's NSSDC Master Catalog

Two Line Element Set (TLE):
1 31921U 99025CLY 18020.25853966 -.00000084 +00000-0 -39888-4 0  9990
2 31921 099.4311 297.5838 0210395 201.8321 311.7018 13.68898029527980
Source of the keplerian elements: AFSPC